KC5EZZ-6 Weather Reports


Display with metric or nautical units.
time (UTC)temp
F
wind
direction
speed
MPH
gust
MPH
rain 1hr
in
rain 24hr
in
rain mn
in
humidity
%
barometer
mb
20260904234236 88 120 0.0 0.0 0.00 0.00 0.00
20260904224715 96 170 2.0 3.0 0.00 0.00 0.00
20260904223706 95 96 0.0 0.0 0.00 0.00 0.00
20260904222918 97 105 1.0 3.0 0.00 0.00 0.00
20260904222658 97 105 1.0 3.0 0.00 0.00 0.00
20260904222157 97 30 1.0 0.0 0.00 0.00 0.00
20260904214845 98 141 0.0 0.0 0.00 0.00 0.00
20260904214637 98 141 0.0 0.0 0.00 0.00 0.00
20260904213629 99 141 0.0 0.0 0.00 0.00 0.00
20260904192022 103 236 0.0 0.0 0.00 0.00 0.00
20260904184003 100 214 0.0 0.0 0.00 0.00 0.00
20260904180447 101 239 0.0 0.0 0.00 0.00 0.00
20260904173434 95 117 0.0 0.0 0.00 0.00 0.00
20260904171425 97 117 0.0 0.0 0.00 0.00 0.00
20260904160354 83 117 0.0 0.0 0.00 0.00 0.00
20260904152844 84 117 0.0 0.0 0.00 0.00 0.00
20260904152335 84 117 0.0 0.0 0.00 0.00 0.00
20260904142816 83 117 0.0 0.0 0.00 0.00 0.00
20260904123727 75 117 0.0 0.0 0.00 0.00 0.00
20260904123221 75 117 0.0 0.0 0.00 0.00 0.00
20260904110142 75 117 0.0 0.0 0.00 0.00 0.00
20260904092056 78 117 0.0 0.0 0.00 0.00 0.00
20260904073511 80 117 0.0 0.0 0.00 0.00 0.00
20260904064113 81 117 0.0 0.0 0.00 0.00 0.00
20260904063452 81 117 0.0 0.0 0.00 0.00 0.00
20260904062946 81 117 0.0 0.0 0.00 0.00 0.00
20260904055933 81 117 0.0 0.0 0.00 0.00 0.00
20260904022803 89 118 0.0 0.0 0.00 0.00 0.00
20260904015749 90 118 0.0 0.0 0.00 0.00 0.00
20260904015250 90 118 0.0 0.0 0.00 0.00 0.00
20260904014744 90 118 0.0 0.0 0.00 0.00 0.00
20260904014243 91 118 0.0 0.0 0.00 0.00 0.00
20260904013741 91 118 0.0 0.0 0.00 0.00 0.00
20260904013238 92 118 0.0 0.0 0.00 0.00 0.00
20260904012736 92 118 0.0 0.0 0.00 0.00 0.00
20260904012236 92 118 0.0 0.0 0.00 0.00 0.00
20260904011731 93 118 0.0 0.0 0.00 0.00 0.00
20260904011230 93 118 0.0 0.0 0.00 0.00 0.00
20260904010729 93 118 0.0 0.0 0.00 0.00 0.00
20260904010223 93 118 0.0 0.0 0.00 0.00 0.00
20260904005722 93 118 0.0 0.0 0.00 0.00 0.00
20260904004215 94 118 0.0 0.0 0.00 0.00 0.00
20260904003714 94 118 0.0 0.0 0.00 0.00 0.00
20260904002207 95 118 0.0 0.0 0.00 0.00 0.00
20260904001201 95 118 0.0 0.0 0.00 0.00 0.00
20260904000700 96 118 0.0 0.0 0.00 0.00 0.00
20260904000155 96 118 0.0 0.0 0.00 0.00 0.00
20260903235654 96 118 0.0 0.0 0.00 0.00 0.00
20260903235153 96 118 0.0 0.0 0.00 0.00 0.00